Tracking 20083 objects as of 9-Dec-2019
HD Live streaming from Space Station
objects crossing your sky now

NOAA 16 DEB

Track NOAA 16 DEB now!
10-day predictions


NORAD ID: 41047
Int'l Code: 2000-055E
Perigee: 775.8 km
Apogee: 801.5 km
Inclination: 99.0 °
Period: 100.5 minutes
Semi major axis: 7159 km
RCS: Unknown
Launch date: September 21, 2000
Source: United States (US)
Launch site: AIR FORCE WESTERN TEST RANGE (AFWTR)

Note: This is SATELLITE DEBRIS
aabbcc
Your satellite tracking list
Your tracking list is empty




NASA's NSSDC Master Catalog

Two Line Element Set (TLE):
1 41047U 00055E   19342.82425977 +.00010019 +00000-0 +36617-2 0  9995
2 41047 098.9669 101.3094 0017987 103.1897 257.1294 14.33064187209440
Source of the keplerian elements: AFSPC